Volver al catálogo

CZ-6A DEB

ActivoPO
NORAD 54340·DEBRIS·🇨🇳 China

Lanzado Nov 11, 2022 desde Taiyuan Satellite Launch Center

Loading…

Próximos Pases (próximas 24 horas)

TLE

ActualizadoSource: Space-Track

Época: Sep 14, 2026, 05:37 UTC

1 54340U 22151CK  26257.23468280  .00005088  00000-0  63108-3 0  9994
2 54340  98.5937 354.4665 0096202 241.3471 117.8039 14.79901513204659

Sigue CZ-6A DEB en tiempo real con AllMySat

Download on the App Store